QPF
0.03 0.04 0.05 0.04 0.03 0.02 0.03 0.06 0.05 0.07 0.09 0.10 0.08 0.07 0.05 0.04 0.04 0.05 0.08 0.10 0.12 0.10 0.11 0.13 0.13 0.13 0.09 0.07 0.05 0.04 0.02 0.01 0.02 0.01 0.00 0.00 0.00 0.00 0.00 0.00 0.00 0.01 0.01
0.05 0.05 0.07 0.05 0.04 0.04 0.05 0.07 0.12 0.19 0.24 0.25 0.21 0.17 0.13 0.11 0.09 0.10 0.10 0.14 0.17 0.16 0.17 0.19 0.19 0.17 0.12 0.08 0.08 0.07 0.03 0.02 0.03 0.02 0.01 0.00 0.00 0.00 0.00 0.00 0.00 0.01 0.01
0.09 0.09 0.10 0.10 0.10 0.09 0.09 0.11 0.16 0.24 0.33 0.38 0.41 0.35 0.27 0.21 0.20 0.19 0.19 0.23 0.25 0.23 0.23 0.23 0.21 0.17 0.13 0.09 0.08 0.07 0.03 0.01 0.02 0.04 0.03 0.02 0.00 0.00 0.00 0.00 0.00 0.00 0.01
0.11 0.12 0.13 0.13 0.14 0.14 0.14 0.18 0.21 0.27 0.34 0.45 0.49 0.43 0.38 0.34 0.32 0.30 0.26 0.25 0.25 0.25 0.25 0.23 0.20 0.17 0.12 0.07 0.05 0.04 0.03 0.02 0.02 0.03 0.04 0.05 0.04 0.03 0.01 0.00 0.00 0.00 0.00
0.09 0.12 0.13 0.13 0.12 0.14 0.17 0.23 0.33 0.42 0.44 0.50 0.53 0.52 0.47 0.38 0.31 0.28 0.27 0.30 0.33 0.31 0.29 0.25 0.21 0.15 0.10 0.05 0.03 0.02 0.02 0.02 0.02 0.02 0.03 0.03 0.04 0.05 0.03 0.01 0.00 0.00 0.00
0.09 0.11 0.12 0.13 0.15 0.18 0.22 0.28 0.40 0.51 0.57 0.60 0.62 0.56 0.48 0.43 0.36 0.30 0.34 0.38 0.38 0.34 0.31 0.28 0.20 0.13 0.09 0.05 0.03 0.02 0.02 0.02 0.01 0.01 0.01 0.02 0.03 0.03 0.03 0.01 0.00 0.00 0.00
0.08 0.10 0.11 0.14 0.17 0.23 0.30 0.36 0.38 0.43 0.46 0.46 0.44 0.39 0.35 0.33 0.32 0.31 0.34 0.37 0.35 0.30 0.26 0.19 0.11 0.07 0.04 0.03 0.03 0.02 0.02 0.01 0.01 0.01 0.02 0.03 0.04 0.06 0.06 0.04 0.02 0.01 0.01
0.06 0.08 0.10 0.15 0.18 0.25 0.32 0.32 0.31 0.33 0.36 0.37 0.37 0.39 0.40 0.37 0.35 0.36 0.36 0.34 0.31 0.26 0.20 0.13 0.08 0.05 0.02 0.02 0.01 0.01 0.01 0.01 0.01 0.02 0.02 0.03 0.04 0.06 0.07 0.08 0.06 0.04 0.02
0.04 0.05 0.07 0.12 0.21 0.28 0.31 0.31 0.34 0.35 0.33 0.34 0.36 0.39 0.39 0.38 0.36 0.38 0.34 0.27 0.21 0.16 0.12 0.07 0.04 0.02 0.01 0.00 0.00 0.00 0.00 0.00 0.00 0.00 0.01 0.02 0.03 0.04 0.06 0.08 0.08 0.07 0.04
0.02 0.03 0.05 0.09 0.17 0.24 0.30 0.34 0.35 0.37 0.37 0.36 0.36 0.36 0.34 0.33 0.34 0.32 0.26 0.18 0.14 0.10 0.06 0.03 0.01 0.01 0.00 0.00 0.00 0.00 0.00 0.00 0.00 0.00 0.00 0.01 0.01 0.02 0.03 0.04 0.05 0.06 0.06
0.03 0.04 0.06 0.09 0.12 0.16 0.20 0.24 0.32 0.37 0.35 0.32 0.33 0.35 0.32 0.30 0.26 0.21 0.15 0.11 0.08 0.06 0.03 0.01 0.00 0.00 0.00 0.00 0.00 0.00 0.00 0.00 0.00 0.00 0.00 0.00 0.00 0.00 0.00 0.01 0.01 0.02 0.02
0.03 0.06 0.08 0.09 0.10 0.11 0.13 0.16 0.22 0.30 0.37 0.36 0.33 0.31 0.26 0.20 0.14 0.10 0.06 0.04 0.03 0.02 0.01 0.00 0.00 0.00 0.00 0.00 0.00 0.00 0.00 0.00 0.00 0.00 0.00 0.00 0.00 0.00 0.00 0.00 0.00 0.00 0.00
0.05 0.08 0.09 0.10 0.11 0.10 0.11 0.12 0.15 0.21 0.29 0.33 0.31 0.26 0.20 0.14 0.08 0.04 0.02 0.01 0.01 0.00 0.00 0.00 0.00 0.00 0.00 0.00 0.00 0.00 0.00 0.00 0.00 0.00 0.00 0.00 0.00 0.00 0.00 0.00 0.00 0.00 0.00
0.07 0.08 0.08 0.09 0.08 0.07 0.08 0.09 0.11 0.16 0.21 0.25 0.26 0.23 0.17 0.11 0.06 0.02 0.01 0.00 0.00 0.00 0.00 0.00 0.00 0.00 0.00 0.00 0.00 0.00 0.00 0.00 0.00 0.00 0.00 0.00 0.00 0.00 0.00 0.00 0.00 0.00 0.00
0.07 0.07 0.06 0.06 0.05 0.04 0.04 0.05 0.07 0.11 0.16 0.18 0.20 0.18 0.13 0.09 0.05 0.02 0.01 0.00 0.00 0.00 0.00 0.00 0.00 0.00 0.00 0.00 0.00 0.00 0.00 0.00 0.00 0.00 0.00 0.00 0.00 0.00 0.00 0.00 0.00 0.00 0.00
0.04 0.04 0.05 0.05 0.03 0.03 0.03 0.03 0.05 0.07 0.10 0.12 0.14 0.14 0.09 0.05 0.03 0.01 0.00 0.00 0.00 0.00 0.00 0.00 0.00 0.00 0.00 0.00 0.00 0.00 0.00 0.00 0.00 0.00 0.00 0.00 0.00 0.00 0.00 0.00 0.00 0.00 0.00
0.02 0.02 0.02 0.02 0.02 0.01 0.02 0.03 0.04 0.04 0.05 0.06 0.08 0.10 0.11 0.08 0.04 0.02 0.01 0.00 0.00 0.00 0.00 0.00 0.00 0.00 0.00 0.00 0.00 0.00 0.00 0.00 0.00 0.00 0.00 0.00 0.00 0.00 0.00 0.00 0.00 0.00 0.00
0.01 0.01 0.01 0.01 0.00 0.00 0.01 0.01 0.02 0.02 0.03 0.03 0.04 0.05 0.05 0.04 0.03 0.02 0.01 0.00 0.00 0.00 0.00 0.00 0.00 0.00 0.00 0.00 0.00 0.00 0.00 0.00 0.00 0.00 0.00 0.00 0.00 0.00 0.00 0.00 0.00 0.00 0.00
0.00 0.00 0.00 0.00 0.00 0.00 0.00 0.01 0.01 0.01 0.02 0.02 0.02 0.03 0.03 0.02 0.01 0.01 0.00 0.00 0.00 0.00 0.00 0.00 0.00 0.00 0.00 0.00 0.00 0.00 0.00 0.00 0.00 0.00 0.00 0.00 0.00 0.00 0.00 0.00 0.00 0.00 0.00
0.00 0.00 0.00 0.00 0.00 0.00 0.00 0.01 0.01 0.02 0.02 0.02 0.03 0.03 0.02 0.02 0.01 0.00 0.00 0.00 0.00 0.00 0.00 0.00 0.00 0.00 0.00 0.00 0.00 0.00 0.00 0.00 0.00 0.00 0.00 0.00 0.00 0.00 0.00 0.00 0.00 0.00 0.00
0.00 0.00 0.00 0.00 0.00 0.00 0.00 0.00 0.01 0.01 0.02 0.02 0.02 0.02 0.02 0.01 0.01 0.00 0.00 0.00 0.00 0.00 0.00 0.00 0.00 0.00 0.00 0.00 0.00 0.00 0.00 0.00 0.00 0.00 0.00 0.00 0.00 0.00 0.00 0.00 0.00 0.00 0.00
0.00 0.00 0.00 0.00 0.00 0.00 0.00 0.00 0.00 0.00 0.01 0.01 0.01 0.01 0.01 0.01 0.00 0.00 0.00 0.00 0.00 0.00 0.00 0.00 0.00 0.00 0.00 0.00 0.00 0.00 0.00 0.00 0.00 0.00 0.00 0.00 0.00 0.00 0.00 0.00 0.00 0.00 0.00
0.00 0.00 0.00 0.00 0.00 0.00 0.00 0.00 0.00 0.00 0.00 0.00 0.00 0.00 0.00 0.00 0.00 0.00 0.00 0.00 0.00 0.00 0.00 0.00 0.00 0.00 0.00 0.00 0.00 0.00 0.00 0.00 0.00 0.00 0.00 0.00 0.00 0.00 0.00 0.00 0.00 0.00 0.00
0.00 0.00 0.00 0.00 0.00 0.00 0.00 0.00 0.00 0.00 0.00 0.00 0.00 0.00 0.00 0.00 0.00 0.00 0.00 0.00 0.00 0.00 0.00 0.00 0.00 0.00 0.00 0.00 0.00 0.00 0.00 0.00 0.00 0.00 0.00 0.00 0.00 0.01 0.01 0.01 0.01 0.00 0.00
0.00 0.00 0.00 0.00 0.00 0.00 0.00 0.00 0.00 0.00 0.00 0.00 0.00 0.00 0.00 0.00 0.00 0.00 0.00 0.00 0.00 0.00 0.00 0.00 0.00 0.00 0.00 0.00 0.00 0.00 0.00 0.00 0.00 0.00 0.00 0.00 0.00 0.01 0.01 0.01 0.01 0.01 0.01
0.00 0.00 0.00 0.00 0.00 0.00 0.00 0.00 0.00 0.00 0.00 0.00 0.00 0.00 0.00 0.00 0.00 0.00 0.00 0.00 0.00 0.00 0.00 0.00 0.00 0.00 0.00 0.00 0.00 0.00 0.00 0.00 0.00 0.00 0.00 0.00 0.00 0.00 0.00 0.01 0.01 0.00 0.00
MSLP
1010.23 1010.12 1010.03 1009.94 1009.88 1009.85 1009.88 1010.00 1010.20 1010.48 1010.82 1011.19 1011.54 1011.85 1012.10 1012.26 1012.36 1012.42 1012.47 1012.54 1012.66 1012.84 1013.10 1013.42 1013.78 1014.14 1014.48 1014.76 1014.97 1015.09 1015.13 1015.08 1014.96 1014.79 1014.57 1014.31 1014.01 1013.68 1013.32 1012.94 1012.55 1012.16 1011.78
1010.81 1010.63 1010.45 1010.27 1010.09 1009.96 1009.88 1009.91 1010.05 1010.29 1010.62 1011.00 1011.37 1011.71 1011.96 1012.12 1012.19 1012.21 1012.20 1012.22 1012.30 1012.46 1012.72 1013.06 1013.45 1013.86 1014.24 1014.56 1014.79 1014.93 1014.97 1014.93 1014.82 1014.66 1014.47 1014.24 1013.99 1013.71 1013.38 1013.01 1012.61 1012.17 1011.74
1011.43 1011.21 1010.97 1010.71 1010.44 1010.19 1010.01 1009.93 1009.98 1010.16 1010.45 1010.81 1011.19 1011.53 1011.79 1011.95 1012.01 1012.00 1011.96 1011.94 1011.98 1012.12 1012.37 1012.72 1013.12 1013.55 1013.95 1014.29 1014.54 1014.69 1014.74 1014.72 1014.63 1014.51 1014.37 1014.21 1014.02 1013.79 1013.51 1013.17 1012.76 1012.30 1011.80
1011.98 1011.75 1011.48 1011.17 1010.82 1010.47 1010.18 1009.98 1009.93 1010.02 1010.24 1010.56 1010.91 1011.25 1011.52 1011.69 1011.75 1011.74 1011.69 1011.65 1011.68 1011.80 1012.03 1012.37 1012.77 1013.20 1013.61 1013.95 1014.21 1014.37 1014.44 1014.44 1014.40 1014.33 1014.25 1014.17 1014.06 1013.90 1013.68 1013.37 1012.96 1012.48 1011.93
1012.41 1012.19 1011.92 1011.57 1011.17 1010.73 1010.33 1010.01 1009.83 1009.80 1009.93 1010.18 1010.49 1010.82 1011.09 1011.28 1011.37 1011.38 1011.35 1011.33 1011.36 1011.48 1011.70 1012.03 1012.42 1012.83 1013.23 1013.57 1013.83 1014.00 1014.09 1014.12 1014.12 1014.11 1014.11 1014.10 1014.06 1013.98 1013.82 1013.54 1013.15 1012.65 1012.06
1012.68 1012.49 1012.23 1011.87 1011.42 1010.91 1010.40 1009.96 1009.65 1009.49 1009.51 1009.67 1009.93 1010.23 1010.51 1010.73 1010.87 1010.94 1010.96 1010.98 1011.04 1011.18 1011.41 1011.72 1012.10 1012.49 1012.87 1013.19 1013.44 1013.61 1013.72 1013.78 1013.82 1013.86 1013.92 1013.98 1014.01 1014.00 1013.88 1013.64 1013.27 1012.76 1012.16
1012.80 1012.64 1012.40 1012.05 1011.57 1011.00 1010.40 1009.84 1009.40 1009.12 1009.01 1009.08 1009.28 1009.55 1009.85 1010.11 1010.32 1010.46 1010.57 1010.66 1010.77 1010.94 1011.19 1011.50 1011.85 1012.23 1012.58 1012.87 1013.11 1013.27 1013.37 1013.45 1013.52 1013.60 1013.70 1013.81 1013.89 1013.92 1013.84 1013.63 1013.28 1012.79 1012.18
1012.80 1012.68 1012.47 1012.13 1011.64 1011.03 1010.36 1009.71 1009.15 1008.74 1008.53 1008.51 1008.65 1008.90 1009.21 1009.52 1009.81 1010.04 1010.24 1010.42 1010.61 1010.83 1011.09 1011.41 1011.74 1012.09 1012.40 1012.67 1012.87 1013.01 1013.11 1013.18 1013.26 1013.36 1013.47 1013.60 1013.71 1013.76 1013.70 1013.52 1013.19 1012.72 1012.13
1012.75 1012.66 1012.49 1012.17 1011.68 1011.05 1010.34 1009.62 1008.98 1008.48 1008.18 1008.08 1008.17 1008.40 1008.73 1009.09 1009.45 1009.78 1010.07 1010.34 1010.60 1010.87 1011.17 1011.48 1011.80 1012.11 1012.38 1012.61 1012.77 1012.89 1012.96 1013.02 1013.09 1013.17 1013.28 1013.40 1013.50 1013.55 1013.51 1013.34 1013.03 1012.59 1012.04
1012.71 1012.65 1012.51 1012.22 1011.75 1011.13 1010.41 1009.66 1008.97 1008.42 1008.06 1007.91 1007.96 1008.18 1008.52 1008.92 1009.34 1009.75 1010.12 1010.47 1010.79 1011.10 1011.41 1011.72 1012.02 1012.29 1012.52 1012.71 1012.83 1012.91 1012.95 1012.98 1013.02 1013.08 1013.16 1013.26 1013.33 1013.37 1013.31 1013.15 1012.86 1012.45 1011.94
1012.70 1012.67 1012.56 1012.31 1011.88 1011.30 1010.60 1009.86 1009.18 1008.62 1008.24 1008.07 1008.10 1008.31 1008.65 1009.07 1009.52 1009.98 1010.40 1010.79 1011.16 1011.49 1011.81 1012.10 1012.37 1012.61 1012.80 1012.94 1013.03 1013.08 1013.09 1013.09 1013.10 1013.12 1013.16 1013.22 1013.26 1013.26 1013.19 1013.02 1012.75 1012.37 1011.90
1012.72 1012.73 1012.65 1012.44 1012.07 1011.54 1010.90 1010.22 1009.59 1009.06 1008.69 1008.53 1008.55 1008.75 1009.08 1009.50 1009.96 1010.42 1010.86 1011.27 1011.64 1011.97 1012.28 1012.55 1012.79 1012.99 1013.15 1013.26 1013.33 1013.35 1013.34 1013.32 1013.30 1013.29 1013.29 1013.30 1013.30 1013.26 1013.17 1012.99 1012.72 1012.37 1011.94
1012.73 1012.77 1012.73 1012.57 1012.26 1011.81 1011.26 1010.67 1010.12 1009.65 1009.34 1009.19 1009.22 1009.41 1009.72 1010.11 1010.55 1010.99 1011.41 1011.80 1012.15 1012.46 1012.74 1012.98 1013.19 1013.37 1013.51 1013.60 1013.65 1013.67 1013.66 1013.63 1013.59 1013.56 1013.54 1013.51 1013.46 1013.39 1013.26 1013.07 1012.80 1012.46 1012.06
1012.69 1012.76 1012.75 1012.64 1012.40 1012.04 1011.59 1011.11 1010.66 1010.29 1010.04 1009.94 1009.98 1010.16 1010.44 1010.79 1011.18 1011.57 1011.94 1012.29 1012.60 1012.88 1013.12 1013.34 1013.53 1013.69 1013.81 1013.90 1013.96 1013.99 1013.99 1013.97 1013.94 1013.90 1013.86 1013.80 1013.72 1013.61 1013.46 1013.25 1012.97 1012.63 1012.24
1012.56 1012.64 1012.66 1012.59 1012.41 1012.14 1011.80 1011.45 1011.11 1010.85 1010.68 1010.62 1010.69 1010.85 1011.10 1011.41 1011.74 1012.07 1012.39 1012.68 1012.95 1013.19 1013.40 1013.59 1013.76 1013.91 1014.04 1014.14 1014.22 1014.28 1014.30 1014.31 1014.29 1014.26 1014.21 1014.13 1014.03 1013.89 1013.71 1013.47 1013.18 1012.84 1012.44
1012.32 1012.41 1012.44 1012.39 1012.27 1012.08 1011.85 1011.61 1011.39 1011.23 1011.14 1011.14 1011.23 1011.39 1011.62 1011.88 1012.16 1012.44 1012.70 1012.95 1013.18 1013.38 1013.57 1013.75 1013.91 1014.06 1014.20 1014.33 1014.43 1014.52 1014.58 1014.62 1014.62 1014.60 1014.55 1014.47 1014.34 1014.18 1013.96 1013.70 1013.39 1013.04 1012.65
1011.99 1012.06 1012.09 1012.06 1011.98 1011.86 1011.72 1011.58 1011.47 1011.40 1011.39 1011.45 1011.57 1011.73 1011.94 1012.18 1012.43 1012.67 1012.90 1013.12 1013.33 1013.52 1013.70 1013.87 1014.03 1014.19 1014.35 1014.49 1014.63 1014.74 1014.83 1014.90 1014.92 1014.92 1014.86 1014.77 1014.63 1014.43 1014.20 1013.91 1013.58 1013.22 1012.82
1011.59 1011.65 1011.67 1011.65 1011.60 1011.54 1011.47 1011.41 1011.38 1011.40 1011.45 1011.56 1011.71 1011.89 1012.11 1012.34 1012.57 1012.81 1013.04 1013.26 1013.47 1013.67 1013.85 1014.03 1014.20 1014.37 1014.54 1014.70 1014.85 1014.98 1015.09 1015.17 1015.21 1015.20 1015.15 1015.04 1014.87 1014.66 1014.39 1014.09 1013.74 1013.37 1012.97
1011.17 1011.22 1011.24 1011.23 1011.21 1011.18 1011.17 1011.18 1011.21 1011.29 1011.40 1011.54 1011.73 1011.94 1012.17 1012.42 1012.68 1012.94 1013.19 1013.44 1013.67 1013.90 1014.10 1014.30 1014.48 1014.66 1014.83 1014.99 1015.14 1015.27 1015.39 1015.47 1015.50 1015.49 1015.42 1015.29 1015.10 1014.86 1014.57 1014.24 1013.89 1013.52 1013.13
1010.76 1010.81 1010.84 1010.85 1010.86 1010.87 1010.91 1010.96 1011.05 1011.16 1011.31 1011.49 1011.71 1011.95 1012.21 1012.49 1012.79 1013.10 1013.40 1013.70 1013.98 1014.23 1014.47 1014.69 1014.88 1015.06 1015.22 1015.38 1015.52 1015.64 1015.74 1015.81 1015.83 1015.80 1015.70 1015.55 1015.33 1015.06 1014.75 1014.41 1014.05 1013.68 1013.30
1010.36 1010.44 1010.50 1010.55 1010.59 1010.66 1010.73 1010.83 1010.95 1011.09 1011.27 1011.47 1011.71 1011.98 1012.28 1012.60 1012.95 1013.31 1013.68 1014.03 1014.36 1014.66 1014.93 1015.17 1015.37 1015.55 1015.70 1015.84 1015.96 1016.06 1016.14 1016.18 1016.18 1016.13 1016.01 1015.83 1015.58 1015.29 1014.95 1014.60 1014.23 1013.87 1013.52
1009.93 1010.06 1010.18 1010.29 1010.40 1010.52 1010.64 1010.77 1010.92 1011.09 1011.28 1011.50 1011.76 1012.05 1012.38 1012.75 1013.14 1013.56 1013.98 1014.39 1014.77 1015.12 1015.42 1015.67 1015.88 1016.05 1016.19 1016.31 1016.41 1016.49 1016.55 1016.57 1016.54 1016.46 1016.32 1016.12 1015.85 1015.54 1015.19 1014.82 1014.46 1014.10 1013.77
1009.41 1009.63 1009.84 1010.04 1010.23 1010.41 1010.59 1010.76 1010.94 1011.13 1011.33 1011.56 1011.82 1012.13 1012.49 1012.89 1013.32 1013.78 1014.25 1014.70 1015.12 1015.50 1015.82 1016.09 1016.30 1016.47 1016.60 1016.70 1016.79 1016.85 1016.89 1016.90 1016.86 1016.77 1016.62 1016.40 1016.12 1015.80 1015.44 1015.07 1014.71 1014.37 1014.06
1008.77 1009.09 1009.40 1009.70 1009.99 1010.25 1010.50 1010.72 1010.93 1011.14 1011.36 1011.60 1011.87 1012.18 1012.55 1012.97 1013.43 1013.91 1014.41 1014.88 1015.33 1015.72 1016.06 1016.33 1016.55 1016.71 1016.84 1016.94 1017.01 1017.07 1017.11 1017.12 1017.08 1016.99 1016.84 1016.62 1016.35 1016.03 1015.68 1015.32 1014.97 1014.64 1014.34
1007.98 1008.40 1008.82 1009.22 1009.60 1009.96 1010.28 1010.56 1010.82 1011.06 1011.29 1011.54 1011.82 1012.15 1012.52 1012.94 1013.41 1013.90 1014.40 1014.89 1015.34 1015.74 1016.07 1016.35 1016.56 1016.73 1016.85 1016.95 1017.04 1017.11 1017.15 1017.17 1017.15 1017.08 1016.95 1016.76 1016.51 1016.21 1015.88 1015.54 1015.20 1014.90 1014.62
1007.05 1007.55 1008.06 1008.56 1009.03 1009.47 1009.87 1010.22 1010.53 1010.81 1011.08 1011.35 1011.65 1011.98 1012.36 1012.78 1013.24 1013.73 1014.22 1014.69 1015.13 1015.52 1015.85 1016.12 1016.33 1016.50 1016.63 1016.74 1016.84 1016.92 1016.99 1017.04 1017.05 1017.01 1016.91 1016.76 1016.55 1016.30 1016.01 1015.71 1015.41 1015.14 1014.89
Thickness
5786 5786 5787 5788 5788 5787 5786 5784 5781 5778 5775 5771 5767 5763 5762 5761 5761 5761 5760 5759 5758 5757 5754 5751 5748 5745 5741 5740 5738 5735 5733 5732 5732 5730 5730 5733 5735 5736 5736 5736 5736 5736 5737
5770 5773 5775 5775 5775 5775 5775 5775 5773 5771 5768 5766 5764 5760 5758 5756 5756 5756 5755 5754 5752 5751 5749 5745 5742 5739 5736 5733 5732 5729 5726 5725 5724 5721 5719 5719 5722 5727 5730 5729 5729 5730 5731
5757 5759 5760 5762 5763 5763 5764 5765 5765 5762 5760 5758 5756 5752 5749 5747 5746 5745 5746 5747 5746 5744 5742 5738 5735 5733 5730 5727 5726 5724 5721 5718 5717 5715 5710 5707 5707 5712 5719 5721 5722 5722 5722
5746 5748 5750 5752 5754 5756 5758 5758 5758 5756 5754 5752 5749 5744 5739 5737 5738 5737 5738 5739 5739 5738 5736 5732 5730 5726 5724 5722 5721 5719 5716 5713 5710 5708 5706 5704 5703 5700 5705 5710 5712 5714 5715
5735 5737 5740 5743 5745 5748 5749 5750 5749 5748 5747 5745 5743 5738 5733 5732 5731 5730 5731 5731 5731 5731 5729 5726 5723 5721 5718 5717 5715 5713 5710 5708 5705 5701 5699 5698 5696 5695 5693 5697 5701 5704 5707
5723 5726 5730 5732 5734 5737 5738 5739 5739 5740 5739 5738 5735 5731 5727 5724 5723 5722 5723 5723 5722 5722 5721 5718 5716 5715 5712 5710 5708 5707 5704 5701 5699 5696 5693 5691 5689 5688 5687 5688 5692 5694 5699
5709 5712 5715 5718 5720 5723 5725 5727 5728 5729 5730 5731 5729 5724 5721 5717 5717 5717 5717 5717 5715 5714 5713 5712 5709 5707 5705 5703 5701 5700 5697 5694 5692 5689 5688 5686 5685 5684 5683 5682 5684 5686 5691
5695 5697 5699 5702 5706 5709 5712 5714 5716 5718 5721 5722 5722 5720 5717 5711 5711 5712 5712 5711 5709 5707 5705 5704 5701 5699 5697 5696 5694 5691 5689 5687 5684 5683 5681 5680 5679 5679 5678 5677 5676 5678 5681
5683 5683 5685 5687 5690 5693 5697 5700 5703 5706 5709 5711 5712 5710 5707 5706 5705 5705 5705 5703 5700 5698 5696 5694 5691 5690 5688 5686 5684 5682 5679 5678 5676 5675 5674 5673 5672 5672 5672 5671 5670 5669 5670
5671 5671 5671 5672 5674 5677 5681 5685 5689 5693 5696 5696 5697 5697 5696 5696 5696 5695 5693 5690 5689 5687 5685 5683 5681 5679 5677 5676 5674 5672 5671 5670 5668 5667 5666 5665 5664 5664 5664 5663 5664 5664 5664
5659 5658 5657 5657 5658 5661 5664 5668 5673 5677 5680 5681 5682 5682 5682 5683 5683 5682 5680 5678 5676 5675 5673 5671 5669 5668 5666 5666 5664 5663 5662 5661 5660 5659 5658 5656 5656 5656 5655 5655 5655 5656 5656
5650 5647 5645 5643 5644 5646 5649 5653 5657 5661 5664 5666 5667 5667 5668 5669 5669 5668 5666 5666 5664 5663 5661 5659 5658 5656 5655 5655 5654 5654 5653 5652 5650 5649 5649 5647 5648 5647 5646 5646 5647 5648 5649
5641 5637 5635 5633 5633 5634 5637 5641 5644 5648 5651 5653 5653 5654 5654 5654 5654 5654 5654 5654 5653 5651 5649 5648 5646 5645 5644 5644 5644 5644 5643 5642 5640 5639 5638 5637 5637 5636 5637 5637 5639 5640 5642
5634 5630 5627 5625 5625 5626 5628 5630 5634 5637 5640 5642 5642 5641 5641 5642 5642 5642 5642 5642 5641 5639 5637 5636 5635 5635 5634 5634 5633 5633 5632 5631 5630 5628 5627 5626 5625 5625 5626 5628 5629 5630 5632
5631 5628 5624 5621 5620 5620 5621 5623 5625 5627 5629 5630 5631 5630 5630 5631 5631 5631 5631 5631 5630 5629 5627 5626 5625 5625 5624 5624 5623 5623 5622 5620 5618 5617 5616 5615 5614 5614 5616 5617 5619 5620 5622
5631 5628 5624 5620 5617 5615 5615 5616 5617 5618 5619 5619 5620 5620 5620 5620 5620 5620 5620 5620 5618 5617 5616 5616 5615 5614 5614 5614 5614 5613 5611 5608 5607 5605 5603 5603 5602 5603 5605 5607 5608 5609 5610
5631 5627 5623 5619 5615 5612 5611 5611 5611 5611 5611 5611 5611 5611 5611 5610 5610 5610 5610 5609 5608 5606 5606 5605 5604 5603 5602 5604 5604 5603 5600 5597 5594 5592 5591 5591 5590 5591 5593 5595 5596 5597 5598
5630 5626 5622 5617 5614 5611 5608 5607 5606 5605 5604 5604 5604 5603 5603 5602 5601 5601 5601 5599 5598 5597 5596 5594 5593 5593 5593 5593 5594 5592 5589 5586 5583 5580 5578 5577 5577 5578 5579 5581 5584 5585 5586
5631 5626 5622 5617 5612 5608 5606 5603 5601 5599 5598 5598 5598 5597 5596 5596 5595 5594 5592 5591 5589 5587 5586 5585 5585 5584 5583 5584 5583 5582 5579 5576 5572 5570 5568 5567 5566 5565 5567 5569 5569 5571 5573
5631 5626 5621 5615 5610 5607 5603 5600 5597 5595 5594 5594 5593 5592 5591 5590 5588 5586 5585 5583 5582 5580 5579 5577 5576 5576 5574 5574 5574 5573 5570 5566 5563 5560 5558 5556 5554 5553 5554 5554 5555 5556 5557
5630 5626 5620 5614 5610 5606 5601 5598 5595 5593 5593 5591 5590 5588 5586 5585 5583 5581 5579 5577 5576 5574 5572 5570 5568 5567 5565 5564 5564 5563 5560 5557 5553 5550 5548 5545 5543 5542 5542 5541 5541 5540 5543
5628 5623 5618 5613 5609 5604 5600 5596 5594 5593 5591 5589 5586 5584 5582 5581 5579 5577 5575 5573 5571 5569 5565 5563 5561 5559 5557 5556 5554 5553 5550 5547 5544 5540 5537 5534 5532 5532 5531 5530 5529 5530 5532
5625 5621 5616 5612 5607 5603 5600 5596 5594 5591 5588 5586 5583 5581 5579 5577 5575 5573 5570 5568 5566 5564 5560 5558 5556 5553 5550 5548 5546 5544 5541 5538 5534 5531 5528 5526 5524 5522 5521 5519 5518 5519 5520
5622 5618 5613 5609 5605 5602 5599 5597 5594 5590 5586 5583 5580 5577 5575 5572 5570 5569 5567 5565 5562 5560 5557 5554 5551 5548 5545 5542 5539 5536 5533 5530 5527 5523 5521 5519 5516 5514 5511 5509 5508 5507 5506
5620 5615 5611 5609 5606 5602 5599 5596 5592 5589 5585 5581 5578 5574 5572 5569 5566 5564 5563 5562 5560 5558 5555 5552 5549 5546 5542 5538 5534 5530 5527 5523 5520 5517 5515 5512 5509 5507 5503 5501 5499 5497 5496
5617 5613 5609 5607 5604 5600 5597 5594 5591 5588 5584 5580 5576 5572 5569 5566 5563 5561 5557 5556 5555 5554 5552 5550 5546 5542 5539 5534 5530 5526 5523 5519 5516 5513 5510 5506 5502 5499 5496 5494 5491 5489 5487